590  
ASUS41 KALY 201810  
RWRALY  
 
NEW YORK STATE HOURLY WEATHER ROUNDUP  
NATIONAL WEATHER SERVICE ALBANY NY  
200 PM EDT WED SEP 20 2017  
 
NOTE: "FAIR" INDICATES FEW OR NO CLOUDS BELOW 12,000 FEET WITH NO  
SIGNIFICANT WEATHER AND/OR NO S TO VISIBILITY
.  
 
NYZ032-033-038>043-046>054-057>066-NYZ062>081-082-084-201900-  
EAST  
 
 
CITY SKY/WX TMP DP RH WIND PRES REMARKS
 
ALBANY PTSUNNY 79 63 57 N15G21 29.96F  
GLENS FALLS CLOUDY 78 62 57 N8 29.97F  
POUGHKEEPSIE CLOUDY 77 64 64 N13G20 29.90F  
NEWBURGH PTSUNNY 75 66 73 N12G21 29.94F  
MONTGOMERY CLOUDY 78 65 63 NE14 29.92F  
WHITE PLAINS CLOUDY 77 64 64 N14G23 29.88S  
ISLIP CLOUDY 76 66 71 N21G31 29.81F  
NEW YORK CITY PTSUNNY 77 66 68 N18G25 29.86F  
CENTRAL PARK CLOUDY 78 65 63 VRB7G20 29.90F  

 
 
NYZ005>009-017-018-044>046-055-056-201900-  
CENTRAL  
 
 
CITY SKY/WX TMP DP RH WIND PRES REMARKS
 
FULTON SUNNY 78 66 66 NW10 30.02S  
SYRACUSE MOSUNNY 80 63 55 MISG 29.99F  
ROME MOSUNNY 80 63 55 CALM 29.99F  
ELMIRA SUNNY 81 62 52 NE14 30.01S  
BINGHAMTON MOSUNNY 78 59 51 N6 30.02F  
MONTICELLO MOSUNNY 77 62 59 N9 29.98F  

 
 
NYZ026>034-041>043-087-201900-  
NORTH  
 
 
CITY SKY/WX TMP DP RH WIND PRES REMARKS
 
WATERTOWN SUNNY 79 64 60 NE13 30.01F  
FORT DRUM NOT AVBL  
OGDENSBURG FAIR 80 65 60 N6 30.04S  
MASSENA SUNNY 76 67 73 NE7 30.05F  
SARANAC LAKE SUNNY 77 59 53 NE12 30.05F  
PLATTSBURGH CLOUDY 78 63 59 NE12 30.01F  

 
 
NYZ001>004-010>016-019>021-085-201900-  
WEST  
 
 
CITY SKY/WX TMP DP RH WIND PRES REMARKS
 
NIAGARA FALLS SUNNY 84 59 42 E3 30.02F  
BUFFALO MOSUNNY 80 61 52 VRB5 30.03F  
DUNKIRK SUNNY 76 64 66 N6 30.04F  
JAMESTOWN MOSUNNY 76 60 57 CALM 30.07F  
WELLSVILLE MOSUNNY 77 61 57 NW7 30.09S  
ROCHESTER MOSUNNY 75 67 76 E8 30.05F  
PENN YAN PTSUNNY 79 63 57 N8 30.04F  

 
 
KEY  
WCI = WIND CHILL INDEX  
VSB = VISIBILITY  
HX = HEAT INDEX  

 
 
 
CLICK HERE TO GO TO PREVIOUS BULLETINS.

The Nexlab NY Page
The Nexlab VT Page
The Nexlab MA Page
The Nexlab CT Page Main Text Page